World > North America > United States > Ohio

Paulding, Ohio Regional Weather

Lat: 41.14N, Lon: 84.58W
Wx Zone: OHZ015
Warning FLW WEATHER ALERT - (More Info. Click Here) Warning
Feedback

Paulding, OH Regional Weather

Expires:201907212200;;423544
ASUS41 KCLE 212112
RWRCLE
OHIO REGIONAL WEATHER ROUNDUP
NATIONAL WEATHER SERVICE WILMINGTON, OH
500 PM EDT SUN JUL 21 2019

NOTE: "FAIR" INDICATES FEW OR NO CLOUDS BELOW 12,000 FEET WITH NO
SIGNIFICANT WEATHER AND/OR OBSTRUCTIONS TO VISIBILITY.


OHZ001>008-015>018-024>027-034-035-043-044-212200-
   NORTHWEST OHIO
  
CITY           SKY/WX    TMP DP  RH WIND       PRES   REMARKS
DEFIANCE       CLOUDY    85  71  63 NW3       29.86F THUNDER HX  90   
FINDLAY        FAIR      93  72  50 NW8       29.86F HX 101           
TOLEDO EXPRESS FAIR      89  73  59 NE14      29.88F HX  97           
TOLEDO EXEC    FAIR      83  71  67 NE15G22   29.91R                  
LIMA           FAIR      90  72  55 SW9       29.88F HX  97           
$$
 

SKY/WX - Weather  TMP - Temperature  DP - Dew Point  RH - Relative Humidity
WIND - Wind Direction/Speed PRES - Barometric Pressure VSB - Visibility
WCI - Wind Chill Index E13G22 Wind - East Wind 13 mph/Gusts of 22 mph